﻿_id,日時,平均風速(m/s),平均風向,最大瞬間風速(m/s),最大風速時風向,気温(℃),湿度(%),10分間移動積算雨量(mm),1時間移動積算雨量(mm),日雨量(mm),累計雨量(mm)
1,2020-09-07T00:00:00,0.8,南南東,1.9,南南東,23.1,97.7,0,0,15.5,16
2,2020-09-07T00:01:00,0.7,南南東,1.9,南南東,23.2,97.7,0,0,0,16
3,2020-09-07T00:02:00,0.6,南南東,1.3,南東,23.2,97.7,0,0,0,16
4,2020-09-07T00:03:00,0.6,南南東,1.3,南東,23.2,97.7,0,0,0,16
5,2020-09-07T00:04:00,0.5,南,1,南東,23.2,97.7,0,0,0,16
6,2020-09-07T00:05:00,0.5,南,1,南東,23.2,97.6,0,0,0,16
7,2020-09-07T00:06:00,0.4,南,1,南東,23.2,97.7,0,0,0,16
8,2020-09-07T00:07:00,0.4,南,1,南東,23.2,97.7,0,0,0,16
9,2020-09-07T00:08:00,0.4,南,1,南東,23.3,97.6,0,0,0,16
10,2020-09-07T00:09:00,0.4,南,1,南東,23.3,97.7,0,0,0,16
11,2020-09-07T00:10:00,0.3,南南東,1,南東,23.3,97.7,0,0,0,16
12,2020-09-07T00:11:00,0.3,南南東,0.8,西南西,23.3,97.6,0,0,0,16
13,2020-09-07T00:12:00,0.3,南東,0.8,西南西,23.3,97.6,0,0,0,16
14,2020-09-07T00:13:00,0.3,東南東,0.8,西南西,23.4,97.7,0,0,0,16
15,2020-09-07T00:14:00,0.3,東,0.7,北東,23.4,97.6,0,0,0,16
16,2020-09-07T00:15:00,0.3,東北東,0.7,北東,23.4,97.6,0,0,0,16
17,2020-09-07T00:16:00,0.3,北東,0.7,北東,23.4,97.6,0,0,0,16
18,2020-09-07T00:17:00,0.4,北東,0.7,北東,23.4,97.6,0,0,0,16
19,2020-09-07T00:18:00,0.4,北東,0.8,北北東,23.3,97.4,0,0,0,16
20,2020-09-07T00:19:00,0.4,北東,0.8,北北東,23.5,97.6,0,0,0,16
21,2020-09-07T00:20:00,0.4,北東,0.8,北北東,23.4,97.6,0,0,0,16
22,2020-09-07T00:21:00,0.5,北東,1.2,東,23.4,97.5,0,0,0,16
23,2020-09-07T00:22:00,0.5,北東,1.4,東北東,23.4,97.4,0,0,0,16
24,2020-09-07T00:23:00,0.6,北東,1.7,東北東,23.4,97.4,0,0,0,16
25,2020-09-07T00:24:00,0.7,東北東,1.7,東北東,23.4,97.4,0,0,0,16
26,2020-09-07T00:25:00,0.8,東北東,1.9,東北東,23.5,97.4,0,0,0,16
27,2020-09-07T00:26:00,0.8,東北東,1.9,東北東,23.5,97.5,0,0,0,16
28,2020-09-07T00:27:00,1,東北東,1.9,東北東,23.4,97.3,0,0,0,16
29,2020-09-07T00:28:00,1,東北東,1.9,東北東,23.4,97.2,0,0,0,16
30,2020-09-07T00:29:00,1.1,東北東,1.9,東北東,23.5,97.3,0,0,0,16
31,2020-09-07T00:30:00,1.2,東北東,1.9,東北東,23.4,97.2,0,0,0,16
32,2020-09-07T00:31:00,1.3,東北東,1.9,東北東,23.3,97,0,0,0,16
33,2020-09-07T00:32:00,1.3,東北東,1.9,東北東,23.4,97.1,0,0,0,16
34,2020-09-07T00:33:00,1.2,東北東,1.9,東北東,23.4,97.2,0,0,0,16
35,2020-09-07T00:34:00,1.1,北東,1.9,東北東,23.5,97.4,0,0,0,16
36,2020-09-07T00:35:00,1,北東,1.9,東北東,23.5,97.3,0,0,0,16
37,2020-09-07T00:36:00,0.9,北東,1.9,東北東,23.5,97.2,0,0,0,16
38,2020-09-07T00:37:00,0.9,北東,1.9,東北東,23.4,97.2,0,0,0,16
39,2020-09-07T00:38:00,0.8,北東,1.9,東北東,23.5,97.2,0,0,0,16
40,2020-09-07T00:39:00,0.7,北東,1.9,東北東,23.3,97,0,0,0,16
41,2020-09-07T00:40:00,0.6,北北東,1.6,東北東,23.3,97,0,0,0,16
42,2020-09-07T00:41:00,0.5,北北東,1.2,北北東,23.3,97,0,0,0,16
43,2020-09-07T00:42:00,0.5,北北東,1.2,北北東,23.2,96.9,0,0,0,16
44,2020-09-07T00:43:00,0.5,北北東,1.3,北北西,23.2,97,0,0,0,16
45,2020-09-07T00:44:00,0.6,北北東,1.4,北北西,23.2,97,0,0,0,16
46,2020-09-07T00:45:00,0.7,北北東,1.4,北北西,23.2,97.1,0,0,0,16
47,2020-09-07T00:46:00,0.7,北,1.4,北北西,23.2,97.2,0,0,0,16
48,2020-09-07T00:47:00,0.6,北,1.4,北北西,23.2,97.2,0,0,0,16
49,2020-09-07T00:48:00,0.6,北北西,1.4,北北西,23.2,97.3,0,0,0,16
50,2020-09-07T00:49:00,0.6,北北西,1.4,北北西,23.2,97.4,0,0,0,16
51,2020-09-07T00:50:00,0.6,北北西,1.4,北北西,23.2,97.4,0,0,0,16
52,2020-09-07T00:51:00,0.6,北北西,1.4,北北西,23.1,97.3,0,0,0,16
53,2020-09-07T00:52:00,0.6,北北西,1.4,北北西,23.2,97.4,0,0,0,16
54,2020-09-07T00:53:00,0.6,北西,1.4,北北西,23.2,97.4,0,0,0,16
55,2020-09-07T00:54:00,0.5,北北西,1.2,北北西,23.2,97.4,0,0,0,16
56,2020-09-07T00:55:00,0.5,北北西,0.9,北北西,23.2,97.5,0,0,0,16
57,2020-09-07T00:56:00,0.5,北北西,1.3,北北西,23.2,97.5,0,0,0,16
58,2020-09-07T00:57:00,0.6,北北西,1.3,北北西,23.2,97.5,0,0,0,16
59,2020-09-07T00:58:00,0.6,北北西,1.3,北北西,23.2,97.5,0,0,0,16
60,2020-09-07T00:59:00,0.7,北北西,1.3,北北西,23.2,97.5,0,0,0,16
61,2020-09-07T01:00:00,0.7,北北西,1.3,北北西,23.2,97.5,0,0,0,16
62,2020-09-07T01:01:00,0.8,北,1.7,北,23.2,97.5,0,0,0,16
63,2020-09-07T01:02:00,0.8,北,1.8,北北東,23.3,97.6,0,0,0,16
64,2020-09-07T01:03:00,0.9,北,1.8,北北東,23.3,97.5,0,0,0,16
65,2020-09-07T01:04:00,1,北,1.8,北北東,23.3,97.6,0,0,0,16
66,2020-09-07T01:05:00,1,北,1.8,北北東,23.3,97.5,0,0,0,16
67,2020-09-07T01:06:00,1.1,北北東,2.3,東北東,23.3,97.6,0,0,0,16
68,2020-09-07T01:07:00,1.1,北北東,2.3,東北東,23.3,97.4,0,0,0,16
69,2020-09-07T01:08:00,1.2,北北東,2.4,東北東,23.3,97.4,0,0,0,16
70,2020-09-07T01:09:00,1.3,北北東,2.5,東北東,23.3,97.3,0,0,0,16
71,2020-09-07T01:10:00,1.4,北東,2.5,東北東,23.3,97.3,0,0,0,16
72,2020-09-07T01:11:00,1.4,北東,2.5,東北東,23.3,97.2,0,0,0,16
73,2020-09-07T01:12:00,1.4,北東,2.5,東北東,23.3,97.2,0,0,0,16
74,2020-09-07T01:13:00,1.3,北東,2.5,東北東,23.4,97.4,0,0,0,16
75,2020-09-07T01:14:00,1.3,北東,2.5,東北東,23.4,97.3,0,0,0,16
76,2020-09-07T01:15:00,1.2,東北東,2.5,東北東,23.5,97.3,0,0,0,16
77,2020-09-07T01:16:00,1.1,北東,2.5,東北東,23.4,97.1,0,0,0,16
78,2020-09-07T01:17:00,0.9,北東,2.5,東北東,23.3,96.9,0,0,0,16
79,2020-09-07T01:18:00,0.8,北東,2.5,東北東,23.3,97,0,0,0,16
80,2020-09-07T01:19:00,0.7,東北東,1.9,北東,23.3,96.9,0,0,0,16
81,2020-09-07T01:20:00,0.6,東,1.7,北北東,23.2,96.9,0,0,0,16
82,2020-09-07T01:21:00,0.5,東南東,1.5,北北東,23.2,97,0,0,0,16
83,2020-09-07T01:22:00,0.4,南東,1.2,南南東,23.2,97.2,0,0,0,16
84,2020-09-07T01:23:00,0.4,南東,1.2,南南東,23.2,97.1,0,0,0,16
85,2020-09-07T01:24:00,0.4,南東,1.2,南南東,23.2,97.2,0,0,0,16
86,2020-09-07T01:25:00,0.4,南南東,1.2,南南東,23.2,97.3,0,0,0,16
87,2020-09-07T01:26:00,0.4,南東,1.2,南南東,23.3,97.4,0,0,0,16
88,2020-09-07T01:27:00,0.5,東南東,1.2,南南東,23.3,97.4,0,0,0,16
89,2020-09-07T01:28:00,0.5,東,1.5,北東,23.3,97.4,0,0,0,16
90,2020-09-07T01:29:00,0.6,東北東,1.9,北北東,23.3,97.5,0,0,0,16
91,2020-09-07T01:30:00,0.6,北東,1.9,北北東,23.3,97.4,0,0,0,16
92,2020-09-07T01:31:00,0.6,北東,1.9,北北東,23.3,97.4,0,0,0,16
93,2020-09-07T01:32:00,0.7,北北東,1.9,北北東,23.3,97.4,0,0,0,16
94,2020-09-07T01:33:00,0.8,北北東,1.9,北北東,23.4,97.5,0,0,0,16
95,2020-09-07T01:34:00,0.9,北北東,1.9,北北東,23.4,97.4,0,0,0,16
96,2020-09-07T01:35:00,0.9,北北東,1.9,北北東,23.3,97.2,0,0,0,16
97,2020-09-07T01:36:00,1,北北東,1.9,北北東,23.4,97.3,0,0,0,16
98,2020-09-07T01:37:00,1,北北東,1.9,北北東,23.4,97.2,0,0,0,16
99,2020-09-07T01:38:00,1,北北東,1.9,北北東,23.4,97.1,0,0,0,16
100,2020-09-07T01:39:00,1,北,1.9,北,23.5,97.2,0,0,0,16
101,2020-09-07T01:40:00,1,北,1.9,北,23.4,97.1,0,0,0,16
102,2020-09-07T01:41:00,1,北,2,北北西,23.4,96.9,0,0,0,16
103,2020-09-07T01:42:00,1,北,2,北北西,23.4,96.9,0,0,0,16
104,2020-09-07T01:43:00,1,北,2,北北西,23.5,96.9,0,0,0,16
105,2020-09-07T01:44:00,1,北,2,北北西,23.6,96.9,0,0,0,16
106,2020-09-07T01:45:00,1,北,2,北北西,23.6,96.9,0,0,0,16
107,2020-09-07T01:46:00,1,北,2,北北西,23.6,96.8,0,0,0,16
108,2020-09-07T01:47:00,0.9,北,2,北北西,23.6,96.7,0,0,0,16
109,2020-09-07T01:48:00,0.9,北,2,北北西,23.6,96.6,0,0,0,16
110,2020-09-07T01:49:00,0.9,北,2,北北西,23.6,96.4,0,0,0,16
111,2020-09-07T01:50:00,0.9,北,2,北北西,23.6,96.4,0,0,0,16
112,2020-09-07T01:51:00,0.8,北,1.8,北北西,23.6,96.4,0,0,0,16
113,2020-09-07T01:52:00,0.9,北,1.8,北北西,23.6,96.4,0,0,0,16
114,2020-09-07T01:53:00,0.9,北北東,1.8,北北西,23.6,96.4,0,0,0,16
115,2020-09-07T01:54:00,0.9,北北東,1.7,北北東,23.6,96.4,0,0,0,16
116,2020-09-07T01:55:00,1,北北東,2.4,北北東,23.6,96.4,0,0,0,16
117,2020-09-07T01:56:00,1,北北東,2.4,北北東,23.6,96.4,0,0,0,16
118,2020-09-07T01:57:00,1,北北東,2.4,北北東,23.6,96.4,0,0,0,16
119,2020-09-07T01:58:00,1.1,北北東,2.4,北北東,23.6,96.4,0,0,0,16
120,2020-09-07T01:59:00,1.1,北北東,2.4,北北東,23.5,96.3,0,0,0,16
121,2020-09-07T02:00:00,1.1,北北東,2.4,北北東,23.5,96.2,0,0,0,16
122,2020-09-07T02:01:00,1,北,2.4,北北東,23.5,96.3,0,0,0,16
123,2020-09-07T02:02:00,0.9,北,2.4,北北東,23.5,96.4,0,0,0,16
124,2020-09-07T02:03:00,0.9,北,2.4,北北東,23.6,96.4,0,0,0,16
125,2020-09-07T02:04:00,0.9,北,2.9,北東,23.6,96.5,0,0,0,16
126,2020-09-07T02:05:00,0.9,北,2.9,北東,23.7,96.4,0,0,0,16
127,2020-09-07T02:06:00,0.8,北北東,2.9,北東,23.7,96.4,0,0,0,16
128,2020-09-07T02:07:00,0.8,北,2.9,北東,23.6,96.3,0,0,0,16
129,2020-09-07T02:08:00,0.8,北,2.9,北東,23.6,96.3,0,0,0,16
130,2020-09-07T02:09:00,0.8,北,2.9,北東,23.7,96.4,0,0,0,16
131,2020-09-07T02:10:00,0.7,北北東,2.9,北東,23.6,96.4,0,0,0,16
132,2020-09-07T02:11:00,0.7,北北東,2.9,北東,23.6,96.3,0,0,0,16
133,2020-09-07T02:12:00,0.7,北北東,2.9,北東,23.6,96.3,0,0,0,16
134,2020-09-07T02:13:00,0.7,北,2.9,北東,23.6,96.4,0,0,0,16
135,2020-09-07T02:14:00,0.6,北,2.4,北北西,23.4,96.3,0,0,0,16
136,2020-09-07T02:15:00,0.7,北,2.4,北北西,23.4,96.3,0,0,0,16
137,2020-09-07T02:16:00,0.8,北,2.4,北北西,23.4,96.5,0,0,0,16
138,2020-09-07T02:17:00,0.9,北,2.9,北北西,23.5,96.7,0,0,0,16
139,2020-09-07T02:18:00,1,北,2.9,北北西,23.5,96.8,0,0,0,16
140,2020-09-07T02:19:00,1,北北西,2.9,北北西,23.6,96.9,0,0,0,16
141,2020-09-07T02:20:00,1.1,北,2.9,北北西,23.6,96.9,0,0,0,16
142,2020-09-07T02:21:00,1.2,北,2.9,北北西,23.6,96.8,0,0,0,16
143,2020-09-07T02:22:00,1.3,北,2.9,北北西,23.6,96.9,0,0,0,16
144,2020-09-07T02:23:00,1.4,北,3.3,北,23.6,96.8,0,0,0,16
145,2020-09-07T02:24:00,1.4,北,3.3,北,23.6,96.7,0,0,0,16
146,2020-09-07T02:25:00,1.4,北,3.3,北,23.6,96.8,0,0,0,16
147,2020-09-07T02:26:00,1.3,北,3.3,北,23.7,96.8,0,0,0,16
148,2020-09-07T02:27:00,1.2,北,3.3,北,23.8,96.8,0,0,0,16
149,2020-09-07T02:28:00,1.2,北,3.3,北,23.8,96.7,0,0,0,16
150,2020-09-07T02:29:00,1.4,北,3.3,北,23.8,96.6,0,0,0,16
151,2020-09-07T02:30:00,1.3,北,3.3,北,23.8,96.4,0,0,0,16
152,2020-09-07T02:31:00,1.3,北,3.3,北,23.8,96.2,0,0,0,16
153,2020-09-07T02:32:00,1.2,北,3.3,北,23.8,96.1,0,0,0,16
154,2020-09-07T02:33:00,1.1,北,2.7,北,23.8,96.1,0,0,0,16
155,2020-09-07T02:34:00,1.1,北北東,2.1,北北東,23.8,96.2,0,0,0,16
156,2020-09-07T02:35:00,1.2,北北東,2.2,北北東,23.7,96.1,0,0,0,16
157,2020-09-07T02:36:00,1.3,北北東,2.7,北北東,23.7,96.1,0,0,0,16
158,2020-09-07T02:37:00,1.3,北北東,2.7,北北東,23.6,96.1,0,0,0,16
159,2020-09-07T02:38:00,1.3,北北東,2.7,北北東,23.7,96.3,0,0,0,16
160,2020-09-07T02:39:00,1.3,北北東,2.7,北北東,23.7,96.4,0,0,0,16
161,2020-09-07T02:40:00,1.3,北北東,2.7,北北東,23.7,96.4,0,0,0,16
162,2020-09-07T02:41:00,1.3,北北東,2.7,北北東,23.8,96.4,0,0,0,16
163,2020-09-07T02:42:00,1.4,北北東,2.7,北北東,23.9,96.4,0,0,0,16
164,2020-09-07T02:43:00,1.4,北北東,2.7,北北東,24.1,96.2,0,0,0,16
165,2020-09-07T02:44:00,1.3,北東,2.7,北北東,24.2,96,0,0,0,16
166,2020-09-07T02:45:00,1.3,北東,2.7,北北東,24.1,95.6,0,0,0,16
167,2020-09-07T02:46:00,1.1,北東,2.5,北北東,24.1,95.3,0,0,0,16
168,2020-09-07T02:47:00,1,北東,2.4,北,24.2,95.2,0,0,0,16
169,2020-09-07T02:48:00,0.9,北東,2.1,北北東,24.1,95,0,0,0,16
170,2020-09-07T02:49:00,0.8,北東,1.7,東,24,94.7,0,0,0,16
171,2020-09-07T02:50:00,0.7,東北東,1.7,東,23.9,94.9,0,0,0,16
172,2020-09-07T02:51:00,0.7,北東,1.7,東,23.8,95.1,0,0,0,16
173,2020-09-07T02:52:00,0.6,北,1.7,東,23.8,95.3,0,0,0,16
174,2020-09-07T02:53:00,0.6,北北西,1.7,東,23.8,95.5,0,0,0,16
175,2020-09-07T02:54:00,0.5,北北西,1.6,東,23.8,95.6,0,0,0,16
176,2020-09-07T02:55:00,0.5,北西,1.1,北,23.7,95.6,0,0,0,16
177,2020-09-07T02:56:00,0.5,北西,1.4,北北東,23.7,95.6,0,0,0,16
178,2020-09-07T02:57:00,0.6,北西,2,北北東,23.7,95.8,0,0,0,16
179,2020-09-07T02:58:00,0.7,北北西,2.3,北東,23.8,96.1,0,0,0,16
180,2020-09-07T02:59:00,0.9,北,2.9,北東,23.8,96.2,0,0,0,16
181,2020-09-07T03:00:00,1,北,2.9,北東,23.8,96.2,0,0,0,16
182,2020-09-07T03:01:00,1.2,北北東,3.1,東北東,23.8,96.3,0,0,0,16
183,2020-09-07T03:02:00,1.3,北北東,3.4,北東,23.9,96.5,0,0,0,16
184,2020-09-07T03:03:00,1.5,北北東,3.4,北東,24,96.5,0,0,0,16
185,2020-09-07T03:04:00,1.6,北東,3.4,北東,24.1,96.2,0,0,0,16
186,2020-09-07T03:05:00,1.7,北東,3.4,北東,24.2,96,0,0,0,16
187,2020-09-07T03:06:00,1.8,東北東,3.4,北東,24.2,95.8,0,0,0,16
188,2020-09-07T03:07:00,1.7,東北東,3.4,北東,24.2,95.5,0,0,0,16
189,2020-09-07T03:08:00,1.7,東,3.4,北東,24.2,95.3,0,0,0,16
190,2020-09-07T03:09:00,1.7,東,3.4,北東,24.4,95.3,0,0,0,16
191,2020-09-07T03:10:00,1.6,東,3.4,北東,24.4,94.9,0,0,0,16
192,2020-09-07T03:11:00,1.5,東,3.4,北東,24.4,94.4,0,0,0,16
193,2020-09-07T03:12:00,1.5,東,3.2,東北東,24.4,94.3,0,0,0,16
194,2020-09-07T03:13:00,1.4,東,3,東北東,24.6,94.1,0,0,0,16
195,2020-09-07T03:14:00,1.4,東,2.8,南東,24.6,93.3,0,0,0,16
196,2020-09-07T03:15:00,1.4,東,3.2,東,24.7,92.7,0,0,0,16
197,2020-09-07T03:16:00,1.5,東,3.2,東,24.8,92.2,0,0,0,16
198,2020-09-07T03:17:00,1.5,東,3.2,東,24.9,91.5,0,0,0,16
199,2020-09-07T03:18:00,1.4,東,3.2,東,24.9,91,0,0,0,16
200,2020-09-07T03:19:00,1.5,東,3.5,東,24.9,90.7,0,0,0,16
201,2020-09-07T03:20:00,1.6,東,4.1,東南東,25,90.3,0,0,0,16
202,2020-09-07T03:21:00,1.7,東,4.1,東南東,24.9,90.1,0,0,0,16
203,2020-09-07T03:22:00,1.8,東,4.6,東南東,24.9,90.2,0,0,0,16
204,2020-09-07T03:23:00,1.9,東,4.6,東南東,25,90.1,0,0,0,16
205,2020-09-07T03:24:00,1.9,東,4.6,東南東,25,89.9,0,0,0,16
206,2020-09-07T03:25:00,2,東,4.6,東南東,25,89.9,0,0,0,16
207,2020-09-07T03:26:00,2,東,4.6,東南東,25.1,89.6,0,0,0,16
208,2020-09-07T03:27:00,2.1,東,4.6,東南東,25.1,89.3,0,0,0,16
209,2020-09-07T03:28:00,2.3,東,4.6,東南東,25.2,89,0,0,0,16
210,2020-09-07T03:29:00,2.3,東,4.6,東南東,25.1,88.8,0,0,0,16
211,2020-09-07T03:30:00,2.3,東,4.6,東南東,25.1,88.8,0,0,0,16
212,2020-09-07T03:31:00,2.3,東,4.6,東南東,25.2,88.7,0,0,0,16
213,2020-09-07T03:32:00,2.3,東,4,東北東,25.3,88.5,0,0,0,16
214,2020-09-07T03:33:00,2.2,東,4,東北東,25.3,88.2,0,0,0,16
215,2020-09-07T03:34:00,2.2,東,5,南東,25.3,88.2,0,0,0,16
216,2020-09-07T03:35:00,2.2,東,5,南東,25.4,88,0,0,0,16
217,2020-09-07T03:36:00,2.3,東南東,6.8,南東,25.4,87.7,0,0,0,16
218,2020-09-07T03:37:00,2.4,東南東,6.8,南東,25.4,87.3,0,0,0,16
219,2020-09-07T03:38:00,2.3,東南東,6.8,南東,25.4,87.3,0,0,0,16
220,2020-09-07T03:39:00,2.2,東南東,6.8,南東,25.4,87.3,0,0,0,16
221,2020-09-07T03:40:00,2,東南東,6.8,南東,25.4,87.3,0,0,0,16
222,2020-09-07T03:41:00,2.1,東南東,6.8,南東,25.4,87.2,0,0,0,16
223,2020-09-07T03:42:00,2.1,東南東,6.8,南東,25.5,87,0,0,0,16
224,2020-09-07T03:43:00,2.2,東南東,6.8,南東,25.5,86.7,0,0,0,16
225,2020-09-07T03:44:00,2.1,東南東,6.8,南東,25.5,86.6,0,0,0,16
226,2020-09-07T03:45:00,2.1,東南東,6.8,南東,25.5,86.5,0,0,0,16
227,2020-09-07T03:46:00,2.1,東南東,5.6,東南東,25.5,86.6,0,0,0,16
228,2020-09-07T03:47:00,2.2,東南東,7.4,東南東,25.5,86.5,0,0,0,16
229,2020-09-07T03:48:00,2.3,東南東,7.4,東南東,25.5,86.5,0,0,0,16
230,2020-09-07T03:49:00,2.6,東南東,7.4,東南東,25.5,86.4,0,0,0,16
231,2020-09-07T03:50:00,3,東南東,7.5,南東,25.6,86.2,0,0,0,16
232,2020-09-07T03:51:00,3,東南東,7.5,南東,25.6,85.8,0,0,0,16
233,2020-09-07T03:52:00,3.2,東南東,7.5,南東,25.6,85.9,0,0,0,16
234,2020-09-07T03:53:00,3.3,東南東,7.5,南東,25.6,86,0,0,0,16
235,2020-09-07T03:54:00,3.4,東南東,8.6,南東,25.6,85.9,0.5,0.5,0.5,16.5
236,2020-09-07T03:55:00,3.8,東南東,9,南東,25.6,85.8,0.5,0.5,0.5,16.5
237,2020-09-07T03:56:00,4,東南東,9,南東,25.6,85.5,0.5,0.5,0.5,16.5
238,2020-09-07T03:57:00,4.1,東南東,9,南東,25.6,85.6,0.5,0.5,0.5,16.5
239,2020-09-07T03:58:00,4.2,東南東,9,南東,25.6,85.4,0.5,0.5,0.5,16.5
240,2020-09-07T03:59:00,4,東南東,9,南東,25.5,85.6,0.5,0.5,0.5,16.5
241,2020-09-07T04:00:00,3.9,東南東,9,南東,25.5,85.9,0.5,0.5,0.5,16.5
242,2020-09-07T04:01:00,4.1,南東,9.1,南南東,25.6,85.9,0.5,0.5,0.5,16.5
243,2020-09-07T04:02:00,4.1,南東,9.1,南南東,25.5,85.8,0.5,0.5,0.5,16.5
244,2020-09-07T04:03:00,4.2,南東,9.1,南南東,25.5,86.1,0.5,0.5,0.5,16.5
245,2020-09-07T04:04:00,4.3,南東,9.1,南南東,25.6,85.8,0,0.5,0.5,16.5
246,2020-09-07T04:05:00,4.1,東南東,9.1,南南東,25.6,85.7,0,0.5,0.5,16.5
247,2020-09-07T04:06:00,4,東南東,9.1,南南東,25.7,85.6,0,0.5,0.5,16.5
248,2020-09-07T04:07:00,3.9,東南東,9.1,南南東,25.7,85.3,0,0.5,0.5,16.5
249,2020-09-07T04:08:00,3.8,南東,9.1,南南東,25.7,85.1,0,0.5,0.5,16.5
250,2020-09-07T04:09:00,3.8,南東,9.1,南南東,25.7,85.2,0,0.5,0.5,16.5
251,2020-09-07T04:10:00,4,南東,9.1,南南東,25.7,85.3,0,0.5,0.5,16.5
252,2020-09-07T04:11:00,4,南東,8.1,東南東,25.7,85.3,0,0.5,0.5,16.5
253,2020-09-07T04:12:00,4.2,南東,8.3,南東,25.7,85.3,0,0.5,0.5,16.5
254,2020-09-07T04:13:00,4.2,南東,8.3,南東,25.8,85.1,0,0.5,0.5,16.5
255,2020-09-07T04:14:00,4.1,南東,8.3,南東,25.8,85,0,0.5,0.5,16.5
256,2020-09-07T04:15:00,4.2,南東,8.3,南東,25.8,84.8,0,0.5,0.5,16.5
257,2020-09-07T04:16:00,4.3,南東,8.3,南東,25.8,84.8,0,0.5,0.5,16.5
258,2020-09-07T04:17:00,4.4,南東,8.3,南東,25.7,85,0,0.5,0.5,16.5
259,2020-09-07T04:18:00,4.5,南東,8.3,南東,25.7,85.3,0,0.5,0.5,16.5
260,2020-09-07T04:19:00,4.5,南東,8.3,南東,25.8,85.2,0,0.5,0.5,16.5
261,2020-09-07T04:20:00,4.4,南東,8.3,南東,25.7,85.1,0,0.5,0.5,16.5
262,2020-09-07T04:21:00,4.3,南東,8.3,南東,25.7,85.2,0,0.5,0.5,16.5
263,2020-09-07T04:22:00,4,南東,7.9,南東,25.7,85.2,0,0.5,0.5,16.5
264,2020-09-07T04:23:00,4.1,東南東,7.9,南東,25.8,85.2,0,0.5,0.5,16.5
265,2020-09-07T04:24:00,3.9,東南東,7.9,南東,25.8,85.1,0,0.5,0.5,16.5
266,2020-09-07T04:25:00,3.7,東南東,7.6,東,25.8,84.8,0,0.5,0.5,16.5
267,2020-09-07T04:26:00,3.8,東南東,8.8,東南東,25.9,84.4,0,0.5,0.5,16.5
268,2020-09-07T04:27:00,3.8,東南東,8.8,東南東,25.9,84.3,0,0.5,0.5,16.5
269,2020-09-07T04:28:00,3.7,東南東,8.8,東南東,25.8,84.4,0,0.5,0.5,16.5
270,2020-09-07T04:29:00,3.7,東南東,8.8,東南東,25.8,84.5,0,0.5,0.5,16.5
271,2020-09-07T04:30:00,3.9,東南東,8.8,東南東,25.8,84.6,0,0.5,0.5,16.5
272,2020-09-07T04:31:00,3.9,東南東,8.8,東南東,25.8,84.5,0,0.5,0.5,16.5
273,2020-09-07T04:32:00,4.1,南東,8.8,東南東,25.8,84.6,0,0.5,0.5,16.5
274,2020-09-07T04:33:00,4,南東,8.8,東南東,25.7,84.8,0,0.5,0.5,16.5
275,2020-09-07T04:34:00,4.1,南東,8.8,東南東,25.7,85,0,0.5,0.5,16.5
276,2020-09-07T04:35:00,4.2,南東,8.8,東南東,25.7,84.9,0,0.5,0.5,16.5
277,2020-09-07T04:36:00,4.1,南東,8.5,東南東,25.7,85.1,0,0.5,0.5,16.5
278,2020-09-07T04:37:00,4.2,南東,8.5,東南東,25.7,85.1,0,0.5,0.5,16.5
279,2020-09-07T04:38:00,4.3,南東,8.5,東南東,25.7,85.2,0,0.5,0.5,16.5
280,2020-09-07T04:39:00,4.4,南東,8.5,東南東,25.7,85.2,0,0.5,0.5,16.5
281,2020-09-07T04:40:00,4.4,南東,8.5,東南東,25.7,85.1,0,0.5,0.5,16.5
282,2020-09-07T04:41:00,4.4,南東,9.2,東南東,25.7,85.1,0,0.5,0.5,16.5
283,2020-09-07T04:42:00,4.7,南東,9.8,東南東,25.8,85,0,0.5,0.5,16.5
284,2020-09-07T04:43:00,4.8,南東,9.8,東南東,25.8,84.7,0,0.5,0.5,16.5
285,2020-09-07T04:44:00,4.7,南東,9.8,東南東,25.8,84.8,0,0.5,0.5,16.5
286,2020-09-07T04:45:00,4.6,南東,9.8,東南東,25.8,84.7,0,0.5,0.5,16.5
287,2020-09-07T04:46:00,4.5,南東,9.8,東南東,25.8,84.7,0,0.5,0.5,16.5
288,2020-09-07T04:47:00,4.5,南東,9.8,東南東,25.7,84.8,0,0.5,0.5,16.5
289,2020-09-07T04:48:00,4.5,南東,9.8,東南東,25.7,84.9,0,0.5,0.5,16.5
290,2020-09-07T04:49:00,4.3,南東,9.8,東南東,25.7,85,0,0.5,0.5,16.5
291,2020-09-07T04:50:00,4.3,東南東,9.8,東南東,25.7,85.1,0,0.5,0.5,16.5
292,2020-09-07T04:51:00,4.1,東南東,9.8,東南東,25.8,85,0,0.5,0.5,16.5
293,2020-09-07T04:52:00,3.9,東南東,9.1,東南東,25.8,84.8,0,0.5,0.5,16.5
294,2020-09-07T04:53:00,3.9,南東,9.1,東南東,25.8,84.7,0,0.5,0.5,16.5
295,2020-09-07T04:54:00,4.1,南東,9.1,東南東,25.8,84.7,0,0,0.5,16.5
296,2020-09-07T04:55:00,4,南東,9.1,東南東,25.7,84.7,0,0,0.5,16.5
297,2020-09-07T04:56:00,4.1,南東,9.1,東南東,25.7,84.9,0,0,0.5,16.5
298,2020-09-07T04:57:00,4.1,南東,9.1,東南東,25.8,84.9,0,0,0.5,16.5
299,2020-09-07T04:58:00,4,南東,9.1,東南東,25.7,84.8,0,0,0.5,16.5
300,2020-09-07T04:59:00,3.9,南東,9.1,東南東,25.7,84.9,0,0,0.5,16.5
301,2020-09-07T05:00:00,3.9,南東,9.1,東南東,25.7,85.1,0,0,0.5,16.5
302,2020-09-07T05:01:00,4,南東,9.1,東南東,25.7,85.1,0,0,0.5,16.5
303,2020-09-07T05:02:00,4,南東,8.2,南東,25.8,84.9,0,0,0.5,16.5
304,2020-09-07T05:03:00,3.8,南東,8.1,東南東,25.7,85,0,0,0.5,16.5
305,2020-09-07T05:04:00,3.8,南東,8.1,東南東,25.7,85,0,0,0.5,16.5
306,2020-09-07T05:05:00,3.7,南東,8.1,東南東,25.8,84.9,0,0,0.5,16.5
307,2020-09-07T05:06:00,3.6,南東,6.3,東南東,25.8,84.9,0,0,0.5,16.5
308,2020-09-07T05:07:00,3.6,南東,6,南東,25.8,84.8,0,0,0.5,16.5
309,2020-09-07T05:08:00,3.6,南東,6,南東,25.8,84.7,0,0,0.5,16.5
310,2020-09-07T05:09:00,3.7,南東,6.1,南東,25.8,84.6,0,0,0.5,16.5
311,2020-09-07T05:10:00,3.7,南東,8.3,東南東,25.8,84.6,0,0,0.5,16.5
312,2020-09-07T05:11:00,3.8,南東,9,南東,25.9,84.6,0,0,0.5,16.5
313,2020-09-07T05:12:00,4,東南東,9,南東,25.9,84.4,0,0,0.5,16.5
314,2020-09-07T05:13:00,3.9,南東,9,南東,26,84.1,0,0,0.5,16.5
315,2020-09-07T05:14:00,4.1,東南東,10,南東,26,84,0,0,0.5,16.5
316,2020-09-07T05:15:00,4.4,南東,10,南東,26.1,83.7,0,0,0.5,16.5
317,2020-09-07T05:16:00,4.7,南東,10,南東,26.1,83.3,0,0,0.5,16.5
318,2020-09-07T05:17:00,4.9,南東,10,南東,26.1,83.2,0,0,0.5,16.5
319,2020-09-07T05:18:00,5,南東,10,南東,26.1,83.1,0,0,0.5,16.5
320,2020-09-07T05:19:00,5.4,南東,11.6,東南東,26.2,82.9,0,0,0.5,16.5
321,2020-09-07T05:20:00,5.6,南東,11.6,東南東,26.2,82.7,0,0,0.5,16.5
322,2020-09-07T05:21:00,5.6,南東,11.6,東南東,26.2,82.6,0,0,0.5,16.5
323,2020-09-07T05:22:00,5.5,南東,11.6,東南東,26.2,82.6,0,0,0.5,16.5
324,2020-09-07T05:23:00,5.6,南東,11.6,東南東,26.2,82.7,0,0,0.5,16.5
325,2020-09-07T05:24:00,5.5,南東,11.6,東南東,26.2,82.7,0,0,0.5,16.5
326,2020-09-07T05:25:00,5.4,南東,11.6,東南東,26.2,82.6,0,0,0.5,16.5
327,2020-09-07T05:26:00,5.4,南東,11.6,東南東,26.2,82.5,0,0,0.5,16.5
328,2020-09-07T05:27:00,5.3,南東,11.6,東南東,26.2,82.5,0,0,0.5,16.5
329,2020-09-07T05:28:00,5.2,南東,11.6,東南東,26.2,82.7,0,0,0.5,16.5
330,2020-09-07T05:29:00,4.8,南東,8.8,南東,26.2,82.7,0,0,0.5,16.5
331,2020-09-07T05:30:00,4.8,南東,8.8,南東,26.2,82.6,0,0,0.5,16.5
332,2020-09-07T05:31:00,4.7,南東,8.8,南東,26.2,82.5,0,0,0.5,16.5
333,2020-09-07T05:32:00,4.6,南東,8.8,南東,26.2,82.5,0,0,0.5,16.5
334,2020-09-07T05:33:00,4.7,南東,10,南東,26.2,82.5,0,0,0.5,16.5
335,2020-09-07T05:34:00,4.8,南東,10,南東,26.3,82.3,0,0,0.5,16.5
336,2020-09-07T05:35:00,4.8,南東,10,南東,26.3,82.1,0,0,0.5,16.5
337,2020-09-07T05:36:00,4.7,南東,10,南東,26.3,82,0,0,0.5,16.5
338,2020-09-07T05:37:00,4.7,南東,10,南東,26.3,82,0,0,0.5,16.5
339,2020-09-07T05:38:00,4.6,南東,10,南東,26.3,82.1,0,0,0.5,16.5
340,2020-09-07T05:39:00,4.5,南東,10,南東,26.3,82.3,0,0,0.5,16.5
341,2020-09-07T05:40:00,4.4,南東,10,南東,26.3,82.4,0,0,0.5,16.5
342,2020-09-07T05:41:00,4.3,南東,10,南東,26.3,82.3,0,0,0.5,16.5
343,2020-09-07T05:42:00,4.1,南東,10,南東,26.2,82.3,0,0,0.5,16.5
344,2020-09-07T05:43:00,3.9,南東,9.4,南東,26.2,82.6,0,0,0.5,16.5
345,2020-09-07T05:44:00,3.7,南東,9.4,南東,26.2,82.7,0,0,0.5,16.5
346,2020-09-07T05:45:00,3.5,南東,7.4,南南東,26.3,82.6,0,0,0.5,16.5
347,2020-09-07T05:46:00,3.4,南東,7.4,南南東,26.3,82.3,0,0,0.5,16.5
348,2020-09-07T05:47:00,3.4,南東,6.8,南東,26.3,82.3,0,0,0.5,16.5
349,2020-09-07T05:48:00,3.4,南東,6.8,南東,26.3,82.2,0,0,0.5,16.5
350,2020-09-07T05:49:00,3.5,南東,6.8,南東,26.4,82.1,0,0,0.5,16.5
351,2020-09-07T05:50:00,3.6,南東,9.6,東南東,26.4,81.8,0,0,0.5,16.5
352,2020-09-07T05:51:00,3.8,南東,9.6,東南東,26.5,81.3,0,0,0.5,16.5
353,2020-09-07T05:52:00,4.1,南東,9.6,東南東,26.5,81.2,0,0,0.5,16.5
354,2020-09-07T05:53:00,4.3,南東,9.6,東南東,26.5,81.2,0,0,0.5,16.5
355,2020-09-07T05:54:00,4.6,南東,9.6,東南東,26.5,81.1,0,0,0.5,16.5
356,2020-09-07T05:55:00,4.6,南東,9.6,東南東,26.5,81,0,0,0.5,16.5
357,2020-09-07T05:56:00,4.6,南東,9.6,東南東,26.5,81.1,0,0,0.5,16.5
358,2020-09-07T05:57:00,4.7,南東,9.6,東南東,26.5,81.2,0,0,0.5,16.5
359,2020-09-07T05:58:00,4.9,南東,9.6,東南東,26.5,81.2,0,0,0.5,16.5
360,2020-09-07T05:59:00,5.1,南東,10.6,東南東,26.6,81.1,0,0,0.5,16.5
361,2020-09-07T06:00:00,5.1,南東,10.6,東南東,26.6,80.9,0,0,0.5,16.5
362,2020-09-07T06:01:00,4.8,南東,10.6,東南東,26.6,80.7,0,0,0.5,16.5
363,2020-09-07T06:02:00,4.7,南東,10.6,東南東,26.5,80.8,0,0,0.5,16.5
364,2020-09-07T06:03:00,4.8,南東,11.3,南東,26.6,80.8,0,0,0.5,16.5
365,2020-09-07T06:04:00,5,南東,11.3,南東,26.6,80.7,0,0,0.5,16.5
366,2020-09-07T06:05:00,5.1,南東,11.3,南東,26.6,80.6,0,0,0.5,16.5
367,2020-09-07T06:06:00,5.2,南東,11.3,南東,26.6,80.7,0,0,0.5,16.5
368,2020-09-07T06:07:00,5.4,南東,11.3,南東,26.7,80.6,0,0,0.5,16.5
369,2020-09-07T06:08:00,5.4,南東,11.3,南東,26.7,80.4,0,0,0.5,16.5
370,2020-09-07T06:09:00,5.3,南東,11.3,南東,26.7,80.4,0,0,0.5,16.5
371,2020-09-07T06:10:00,5.6,南東,11.3,南東,26.8,80.2,0,0,0.5,16.5
372,2020-09-07T06:11:00,5.6,南東,11.3,南東,26.7,80.2,0,0,0.5,16.5
373,2020-09-07T06:12:00,5.6,南東,11.3,南東,26.6,80.5,0,0,0.5,16.5
374,2020-09-07T06:13:00,5.5,南東,10.9,南東,26.6,80.7,0,0,0.5,16.5
375,2020-09-07T06:14:00,5.3,南東,10.9,南東,26.6,80.8,0,0,0.5,16.5
376,2020-09-07T06:15:00,5.4,南東,10.9,南東,26.7,80.7,0,0,0.5,16.5
377,2020-09-07T06:16:00,5.4,南東,10.9,南東,26.7,80.5,0,0,0.5,16.5
378,2020-09-07T06:17:00,5.5,南東,10.9,南東,26.7,80.5,0,0,0.5,16.5
379,2020-09-07T06:18:00,5.4,南東,10.9,南東,26.7,80.5,0,0,0.5,16.5
380,2020-09-07T06:19:00,5.4,南東,10.9,南東,26.7,80.6,0,0,0.5,16.5
381,2020-09-07T06:20:00,5.2,南東,10.4,南南東,26.8,80.3,0,0,0.5,16.5
382,2020-09-07T06:21:00,5.5,南東,10.6,東南東,26.8,80.1,0,0,0.5,16.5
383,2020-09-07T06:22:00,5.7,南東,10.9,東,26.8,80,0,0,0.5,16.5
384,2020-09-07T06:23:00,6,南東,10.9,東,26.8,79.9,0,0,0.5,16.5
385,2020-09-07T06:24:00,6.1,南東,10.9,東,26.8,79.8,0,0,0.5,16.5
386,2020-09-07T06:25:00,6,南東,10.9,東,26.8,80,0,0,0.5,16.5
387,2020-09-07T06:26:00,6.1,南東,10.9,東,26.8,80,0,0,0.5,16.5
388,2020-09-07T06:27:00,6.1,南東,10.9,東,26.9,79.9,0,0,0.5,16.5
389,2020-09-07T06:28:00,6.2,南東,10.9,東,26.8,80,0,0,0.5,16.5
390,2020-09-07T06:29:00,6.3,南東,10.9,東,26.8,79.8,0,0,0.5,16.5
391,2020-09-07T06:30:00,6.3,南東,11.1,東南東,26.8,79.9,0,0,0.5,16.5
392,2020-09-07T06:31:00,6.1,南東,11.1,東南東,26.8,80.1,0,0,0.5,16.5
393,2020-09-07T06:32:00,5.9,南東,11.1,東南東,26.8,80.1,0,0,0.5,16.5
394,2020-09-07T06:33:00,5.7,南東,11.1,東南東,26.8,80.2,0,0,0.5,16.5
395,2020-09-07T06:34:00,5.6,南東,11.1,東南東,26.8,80.1,0,0,0.5,16.5
396,2020-09-07T06:35:00,5.6,南東,11.1,東南東,26.8,80,0,0,0.5,16.5
397,2020-09-07T06:36:00,5.4,南東,11.1,東南東,26.9,80,0,0,0.5,16.5
398,2020-09-07T06:37:00,5.4,南東,11.1,東南東,27,79.5,0,0,0.5,16.5
399,2020-09-07T06:38:00,5.5,南東,11.2,南東,27,79.4,0,0,0.5,16.5
400,2020-09-07T06:39:00,5.3,南東,11.2,南東,27,79.5,0,0,0.5,16.5
401,2020-09-07T06:40:00,5.2,南東,11.2,南東,27,79.6,0,0,0.5,16.5
402,2020-09-07T06:41:00,5.4,南東,11.2,南東,27,79.3,0,0,0.5,16.5
403,2020-09-07T06:42:00,5.7,南東,11.2,南東,27,79.2,0,0,0.5,16.5
404,2020-09-07T06:43:00,5.6,南東,11.2,南東,27,79.2,0,0,0.5,16.5
405,2020-09-07T06:44:00,5.4,南東,11.2,南東,27,79.4,0,0,0.5,16.5
406,2020-09-07T06:45:00,5.6,南東,11.2,南東,27.1,79.2,0,0,0.5,16.5